Location: Unspecified
(49.2170°N, 0.0000°E)
Time: 11:21:17
(UTC+00:00)

Courier 1B - Visible Passes

Search period start: 17 June 2019 00:00
Search period end: 27 June 2019 00:00
Orbit: 963 x 1209 km, 28.3° (Epoch: 17 June)

Date Brightness Start Highest point End Pass type
(mag) Time Alt. Az. Time Alt. Az. Time Alt. Az.
17 Jun 9.4 21:07:35 10° SSW 21:11:07 14° S 21:14:39 10° SE visible
17 Jun 9.6 23:00:06 10° SW 23:01:33 12° SSW 23:01:33 12° SSW visible
18 Jun 9.3 22:06:23 10° SSW 22:10:19 15° S 22:11:03 15° S visible
19 Jun 9.4 21:12:55 10° SSW 21:16:47 15° S 21:20:27 11° SSE visible
19 Jun 9.7 23:06:56 10° SSW 23:07:20 11° SSW 23:07:20 11° SSW visible
20 Jun 9.4 22:12:42 10° SW 22:16:00 13° S 22:16:39 13° S visible
21 Jun 9.5 21:18:53 10° SSW 21:22:28 14° S 21:25:56 10° SSE visible
22 Jun 9.6 22:20:49 10° SSW 22:21:38 10° SSW 22:22:03 10° SSW visible
23 Jun 9.6 21:25:45 10° SSW 21:28:09 12° SSW 21:30:33 10° S visible
